Location: Newark
(42.8481°N, 0.4872°E)
Time: 23:17:39
(UTC+00:00)

Vanguard 1 - Pass Details

Date: 02 November 2020
Orbit: 650 x 3833 km, 34.2° (Epoch: 29 November)

Event Time Altitude Azimuth Distance (km) Brightness Sun altitude
Rises 18:10:10 0° 284° (WNW) 7,905 16.1 -15.3°
Reaches altitude 10° 18:17:05 10° 275° (W) 6,640 15.6 -16.6°
Maximum altitude 18:32:12 27° 228° (SW) 4,338 13.8 -19.4°
Drops below altitude 10° 18:42:44 10° 176° (S) 4,526 13.4 -21.3°
Sets 18:46:23 0° 164° (SSE) 5,090 13.6 -22.0°
